STARLINK-5127, 54010

Orbit data source: Space-Track

STARLINK-5127, 54010 is a payload satellite owned by SpaceX/Seattle (US) in LEO that was launched on Wed, 05 Oct 2022 UTC via an FALCON 9 launch vehicle from the Air Force Western Test Range (AFWTR). Payload-class satellites include a variety of spacecraft equipped with specific instruments for various scientific and technological missions. These include communications satellites like Starlink; space stations such as the ISS; scientific satellites like the Hubble; Earth observation satellites from companies like Planet Labs, Umbra, and HawkEye 360; GPS; miniature CubeSats for education and research; and military/defense satellites.

Loading next visibility...
Identifier
54010, 2022-125AY
Orbit
LEO
Country
Flag of USUS
Related business
Manufacturer
SpaceX/Seattle
Mission
Operational Commercial Communications
Bus & Motor
STARLINK, Unknown motor
Mass
305 kg wet, ~290 kg dry
Launch date (UTC)
2022-10-05 (4 years ago)
Launch vehicle
FALCON 9
Launch site
Air Force Western Test Range (AFWTR)
Object type
Payload
Rocket body
Debris
Shape & HBR
Box + 1 Pan, 10.1 m
Radar Cross Section
13.562 m², Large (>1 m²)

Expand to show TLE details & history
Last TLE update: 3 days ago

TLE from 3 days ago
0 STARLINK-5127
1 54010U 22125AY  26170.53068532  .00000361  00000-0  40763-4 0  9994
2 54010  53.1618 106.4031 0001389  85.6537 274.4613 15.08832930204985
Epoch: 2026-06-19T12:44Z
TLE epoch observation values (Epoch: 2026-06-19T12:44:11.211Z)
Latitude
-0.00004°
Longitude
7.59802°
Altitude
540.582 km
Speed
7.593 km/s
True Right ascension
07h 05m 36s
True Declination
0° 00' 00"
Sunlit
Object was in daylight at epoch
Visualization orbit readout
Latitude
Unknown
Longitude
Unknown
Altitude
Unknown
Speed
Unknown
Apparent Right ascension
Unknown
Apparent Declination
Unknown
Sunlit
N/A
Visualization observer readout
Local Sidereal Time
21:26:16
Azimuth
Unknown
Elevation
Unknown
Doppler factor
Unknown
Orbital elements
Apogee altitude
540.98 km
Perigee altitude
539.058 km
Semi-major axis
6,918.156 km
Eccentricity
0.00014
Inclination
53.1618°
RAAN
106.4031°
Arg. of periapsis
85.6537°
True anomaly
274.44543°
Mean anomaly
274.4613°
Eccentric anomaly
274.45337°
Mean motion
3.77188 °/min
Orbital period
95.44 mins
BSTAR
0.000040763
Loading maneuver chart data...
Computing Atmospheric mass density...
Loading historical data...
Loading historical data...
Loading historical data...
Loading historical data...
Loading historical data...
Loading historical data...
Loading historical data...

Documentation

Showing up to 5 results
|